Voltar ao catálogo

COSMOS 1275 DEB

AtivoPO
NORAD 12758·DEBRIS·🇷🇺 Russia

Lançado Jun 4, 1981 de Plesetsk Cosmodrome

Loading…

Próximas Passagens (próximas 24 horas)

TLE

AtualizadoSource: Space-Track

Época: Sep 14, 2026, 08:04 UTC

1 12758U 81053DB  26257.33626640  .00000415  00000-0  36593-3 0  9991
2 12758  82.8646  18.5111 0055252 310.3674  77.8178 13.82370809263986

Acompanhe COSMOS 1275 DEB em tempo real com AllMySat

Download on the App Store